Location: Lombard
(41.8800°N, 88.0080°W)
Time: 00:13:02
(UTC-05:00)

Transit 2A - Pass Details

Date: 15 February 2023
Orbit: 591 x 964 km, 66.7° (Epoch: 20 March)

Event Time Altitude Azimuth Distance (km) Brightness Sun altitude
Rises 15:18:20 0° 250° (WSW) 3,073 10.4 19.9°
Reaches altitude 10° 15:21:02 10° 266° (W) 2,223 9.5 19.5°
Maximum altitude 15:25:01 23° 318° (NW) 1,626 7.9 19.0°
Drops below altitude 10° 15:29:20 10° 8° (N) 2,431 8.2 18.3°
Sets 15:32:28 0° 23° (NNE) 3,440 8.9 17.9°
